User: anonymous   Login
Location: Pcim
(49.7500°N, 19.9670°E)
Time: 00:28:45
(UTC+02:00)
Language:

EO-79 - Orbit

View from above orbital plane
View from above orbital plane
View from above satellite
View from above satellite

Ground track
Ground track

The orbit data is extracted from the following two-line orbital elements,

1 40025U 14033R   24115.42497711  .00015873  00000-0  13222-2 0  9996
2 40025  98.0374  74.4702 0008835 348.8220  11.2804 14.98699520535337
Epoch (UTC): 24 April 2024 10:11:58
Eccentricity: 0.0008835
inclination: 98.0374°
perigee height: 565 km
apogee height: 577 km
right ascension of ascending node: 74.4702°
argument of perigee: 348.8220°
revolutions per day: 14.98699520
mean anomaly at epoch: 11.2804°
orbit number at epoch: 53533

The dashed part of the orbit path shows where the satellite is in the earth's shadow,  

DLR